[TLELIST] Archives

 

[list_settings.list_name] Current TLEs

September 1st 2008 PDT

HST 1 20580U 90037B 08243.97731577 +.00000284 +00000-0 +90932-5 0 02150 2 20580 028.4679 195.4162 0003808 101.2771 258.8241 15.00403118806220 ISS (ZARYA) 1 25544U 98067A 08243.85740898 +.00007388 +00000-0 +60257-4 0 01583 2 25544 051.6446 353.2357 0006923 062.4355 033.2337 15.71824208560281 CXO 1 25867U 99040B 08244.25000000 +.00000044 +00000-0 +10000-3 0 02383 2 25867 064.1128 078.3494 6969345 278.1170 357.1450 00.37806153003916 ____________________________________________________________________ These 2-Line ...Continue Reading

[list_settings.list_name] Current TLEs

August 31st 2008 PDT

HST 1 20580U 90037B 08242.97954633 +.00000291 +00000-0 +96195-5 0 02266 2 20580 028.4680 201.9238 0003767 090.4750 269.6271 15.00402929806074 ISS (ZARYA) 1 25544U 98067A 08243.53835338 .00007468 00000-0 60874-4 0 1564 2 25544 051.6443 354.8695 0006895 061.8030 027.2576 15.71819357560233 CXO 1 25867U 99040B 08244.25000000 +.00000044 +00000-0 +10000-3 0 02383 2 25867 064.1128 078.3494 6969345 278.1170 357.1450 00.37806153003916 ____________________________________________________________________ These 2-Line ...Continue Reading

[list_settings.list_name] Current TLEs

August 30th 2008 PDT

HST 1 20580U 90037B 08243.17910035 .00000279 00000-0 87530-5 0 2109 2 20580 028.4679 200.6216 0003778 092.6027 267.4995 15.00402869806103 ISS (ZARYA) 1 25544U 98067A 08242.52327631 .00007860 00000-0 63862-4 0 1492 2 25544 051.6432 000.0656 0006797 058.2075 043.1520 15.71802768560074 CXO 1 25867U 99040B 08241.62500000 +.00000013 +00000-0 +10000-3 0 02371 2 25867 064.1066 078.4493 6963378 278.1441 359.7433 00.37802321003909 ____________________________________________________________________ These 2-Line ...Continue Reading

[list_settings.list_name] Current TLEs

August 29th 2008 PDT

HST 1 20580U 90037B 08241.31659613 .00000294 00000-0 99176-5 0 2099 2 20580 028.4681 212.7682 0003749 072.8240 287.2759 15.00402555805820 ISS (ZARYA) 1 25544U 98067A 08241.50381381 .00000794 00000-0 10655-4 0 1425 2 25544 051.6429 005.2860 0006422 054.0673 034.8176 15.71777722559913 CXO 1 25867U 99040B 08241.62500000 +.00000013 +00000-0 +10000-3 0 02371 2 25867 064.1066 078.4493 6963378 278.1441 359.7433 00.37802321003909 ____________________________________________________________________ These 2-Line ...Continue Reading

[list_settings.list_name] Current TLEs

August 28th 2008 PDT

HST 1 20580U 90037B 08239.98623540 +.00000309 +00000-0 +11029-4 0 02210 2 20580 028.4686 221.4483 0003618 059.7570 300.3381 15.00402421805624 ISS (ZARYA) 1 25544U 98067A 08240.75016248 .00006540 00000-0 55344-4 0 1360 2 25544 051.6434 009.1366 0008845 063.0312 078.3661 15.71158121559798 CXO 1 25867U 99040B 08239.00000000 -.00000004 +00000-0 +10000-3 0 02365 2 25867 064.1032 078.5165 6956148 278.2090 002.3190 00.37795790003897 ____________________________________________________________________ These 2-Line ...Continue Reading

[list_settings.list_name] Current TLEs

August 27th 2008 PDT

HST 1 20580U 90037B 08240.18578958 .00000286 00000-0 92737-5 0 2081 2 20580 028.4682 220.1432 0003724 060.8624 299.2338 15.00402199805654 ISS (ZARYA) 1 25544U 98067A 08239.85900280 .00006746 00000-0 56963-4 0 1307 2 25544 051.6434 013.6935 0008826 060.3551 077.1240 15.71146014559657 CXO 1 25867U 99040B 08239.00000000 -.00000004 +00000-0 +10000-3 0 02365 2 25867 064.1032 078.5165 6956148 278.2090 002.3190 00.37795790003897 ____________________________________________________________________ These 2-Line ...Continue Reading

[list_settings.list_name] Current TLEs

August 26th 2008 PDT

HST 1 20580U 90037B 08238.38980160 .00000311 00000-0 11212-4 0 2078 2 20580 028.4687 231.8593 0003619 042.4576 317.6293 15.00401989805382 ISS (ZARYA) 1 25544U 98067A 08237.88716429 +.00006874 +00000-0 +58026-4 0 01188 2 25544 051.6429 023.7751 0008791 053.7228 083.3938 15.71117447559344 CXO 1 25867U 99040B 08239.00000000 -.00000004 +00000-0 +10000-3 0 02365 2 25867 064.1032 078.5165 6956148 278.2090 002.3190 00.37795790003897 ____________________________________________________________________ These 2-Line ...Continue Reading

[list_settings.list_name] Current TLEs

August 25th 2008 PDT

HST 1 20580U 90037B 08236.46077610 +.00000297 +00000-0 +10133-4 0 02223 2 20580 028.4691 244.4402 0003547 020.8265 339.2467 15.00401393805091 ISS (ZARYA) 1 25544U 98067A 08238.17943287 .00006850 00000-0 57824-4 0 1195 2 25544 051.6431 022.2803 0008795 054.7965 296.5118 15.71121709559380 CXO 1 25867U 99040B 08233.66666667 +.00000192 +00000-0 +10000-3 0 02354 2 25867 064.0690 078.7031 6952793 278.2667 356.2363 00.37808290003873 ____________________________________________________________________ These 2-Line ...Continue Reading

[list_settings.list_name] Current TLEs

August 24th 2008 PDT

HST 1 20580U 90037B 08237.19247571 .00000295 00000-0 99404-5 0 2068 2 20580 028.4690 239.6690 0003556 028.7444 331.3340 15.00401562805205 ISS (ZARYA) 1 25544U 98067A 08237.16163194 .00007044 00000-0 59362-4 0 1144 2 25544 051.6429 027.4850 0008746 050.9421 299.8026 15.71107239559226 CXO 1 25867U 99040B 08233.66666667 +.00000192 +00000-0 +10000-3 0 02354 2 25867 064.0690 078.7031 6952793 278.2667 356.2363 00.37808290003873 ____________________________________________________________________ These 2-Line ...Continue Reading

[list_settings.list_name] Current TLEs

August 23rd 2008 PDT

HST 1 20580U 90037B 08235.46300390 .00000293 00000-0 98489-5 0 2054 2 20580 028.4692 250.9473 0003540 009.5587 350.5068 15.00401113804942 ISS (ZARYA) 1 25544U 98067A 08236.14077546 .00007568 00000-0 63458-4 0 1081 2 25544 051.6422 032.7048 0008670 047.4221 285.5237 15.71093576559068 CXO 1 25867U 99040B 08233.66666667 +.00000192 +00000-0 +10000-3 0 02354 2 25867 064.0690 078.7031 6952793 278.2667 356.2363 00.37808290003873 ____________________________________________________________________ These 2-Line ...Continue Reading
  • This mailing list is a public mailing list - anyone may join or leave, at any time.
  • This mailing list is announce-only.

International Space Station (ISS) / Hubble Space Telescope (HST) / Chandra X-Ray Observatory Orbital Data via EMAIL

Privacy Policy:

Private list